Weather History for CYTZ - June, 2013

Change the Weather History Date:

Sunday, June 23, 2013

  Actual Average Record
Temperature  
Mean Temperature 72 °F -  
Max Temperature 81 °F 76 °F 89 °F (2002)
Min Temperature 63 °F 60 °F 53 °F (2005)
Cooling Degree Days 7    
Growing Degree Days 22 (Base 50)    
Moisture  
Dew Point 65 °F    
Average Humidity 83    
Maximum Humidity 100    
Minimum Humidity 54    
Precipitation  
Precipitation 0.04 in 0.09 in - ()
Sea Level Pressure  
Sea Level Pressure 30.01 in    
Wind  
Wind Speed 5 mph ()    
Max Wind Speed 31 mph    
Max Gust Speed 47 mph    
Visibility 4.8 miles    
Events Fog , Rain , Thunderstorm    
Averages and records for this station are not official NWS values.
T = Trace of Precipitation, MM = Missing Value Source: Averaged Metar Reports

Daily Weather History Graph

Daily Weather History Graph

Search for Another Location

Airport or City:

Trip Planner

Search our weather history database for the weather conditions in past years. The results will help you decide how hot, cold, wet, or windy it might be!

Date:

Astronomy

Jun. 23, 2013 Rise Set
Actual Time 5:36 AM EDT 9:02 PM EDT
Civil Twilight 5:00 AM EDT 9:38 PM EDT
Nautical Twilight 4:13 AM EDT 10:26 PM EDT
Astronomical Twilight 3:14 AM EDT 11:25 PM EDT
Moon 9:10 PM EDT (6/23) 5:54 AM EDT (6/23)
Length of Visible Light 16h 38m
Length of Day
15h 26m
Full, 100% of the Moon is Illuminated
Jun 23
Full
Jun 30
Last Quarter
Jul 8
New
Jul 15
First Quarter
Jul 22
Full

Hourly Weather History & Observations

Time (EDT) Temp. Dew Point Humidity Pressure Visibility Wind Dir Wind Speed Gust Speed Precip Events Conditions
12:00 AM 64.4 °F 62.6 °F 94% 30.04 in 2.5 mi SSW 6.9 mph - N/A   Partly Cloudy
1:00 AM 66.2 °F 64.4 °F 94% 30.04 in 2.5 mi SSE 3.5 mph - N/A   Overcast
1:05 AM 66.2 °F 62.6 °F 88% 30.05 in 3.0 mi ESE 5.8 mph - N/A   Overcast
2:00 AM 67 °F 64 °F 88% 30.04 in 4 mi NNE 6.9 mph - -   Mist
2:00 AM 68.0 °F 64.4 °F 88% 30.04 in 4.0 mi NNE 4.6 mph - N/A   Partly Cloudy
3:00 AM 66.2 °F 62.6 °F 88% 30.02 in 4.0 mi Variable 2.3 mph - N/A   Scattered Clouds
3:25 AM 64.4 °F 62.6 °F 94% 30.01 in 2.2 mi WNW 3.5 mph - N/A   Scattered Clouds
4:00 AM 64.4 °F 62.6 °F 94% 30.01 in 2.5 mi South 3.5 mph - N/A   Clear
4:34 AM 64.4 °F 62.6 °F 94% 30.03 in 1.8 mi Variable 2.3 mph - N/A   Clear
5:00 AM 64.4 °F 62.6 °F 94% 30.03 in 1.5 mi Calm Calm - N/A   Clear
6:00 AM 64.4 °F 62.6 °F 94% 30.03 in 1.0 mi South 2.3 mph - N/A   Clear
6:45 AM 64.4 °F 62.6 °F 94% 30.05 in 0.8 mi SW 3.5 mph - N/A   Clear
7:00 AM 64.4 °F 62.6 °F 94% 30.04 in 0.6 mi SW 2.3 mph - N/A   Partly Cloudy
7:13 AM 64.4 °F 62.6 °F 94% 30.04 in 0.6 mi SW 2.3 mph - N/A   Mostly Cloudy
7:31 AM 62.6 °F 62.6 °F 100% 30.05 in 0.1 mi SW 2.3 mph - N/A Fog Fog
7:46 AM 64.4 °F 64.4 °F 100% 30.04 in 1.0 mi Variable 2.3 mph - N/A   Mostly Cloudy
7:49 AM 64.4 °F 64.4 °F 100% 30.04 in 1.2 mi SSW 2.3 mph - N/A   Overcast
7:53 AM 64.4 °F 64.4 °F 100% 30.04 in 0.8 mi Variable 2.3 mph - N/A   Overcast
8:00 AM 65 °F 64 °F 94% 30.05 in 0 mi WSW 2.3 mph - - Fog Fog
8:00 AM 64.4 °F 64.4 °F 100% 30.05 in 0.5 mi Variable 2.3 mph - N/A Fog Fog
8:10 AM 64.4 °F 64.4 °F 100% 30.04 in 0.8 mi Variable 2.3 mph - N/A   Mostly Cloudy
8:20 AM 66.2 °F 64.4 °F 94% 30.04 in 1.0 mi SW 3.5 mph - N/A   Mostly Cloudy
8:23 AM 66.2 °F 64.4 °F 94% 30.04 in 1.0 mi SW 3.5 mph - N/A   Scattered Clouds
8:54 AM 66.2 °F 64.4 °F 94% 30.05 in 2.0 mi SW 4.6 mph - N/A   Partly Cloudy
9:00 AM 66.2 °F 64.4 °F 94% 30.06 in 2.5 mi SW 4.6 mph - N/A   Partly Cloudy
9:05 AM 66.2 °F 64.4 °F 94% 30.06 in 2.5 mi WSW 4.6 mph - N/A   Partly Cloudy
10:00 AM 68.0 °F 66.2 °F 94% 30.05 in 2.5 mi Variable 2.3 mph - N/A   Clear
10:29 AM 69.8 °F 66.2 °F 88% 30.04 in 3.0 mi SW 4.6 mph - N/A   Clear
11:00 AM 71.6 °F 68.0 °F 88% 30.04 in 4.0 mi SW 3.5 mph - N/A   Clear
11:23 AM 75.2 °F 68.0 °F 78% 30.04 in 6.0 mi SSW 4.6 mph - N/A   Haze
12:00 PM 75.2 °F 68.0 °F 78% 30.04 in 6.0 mi SSW 6.9 mph - N/A   Haze
1:00 PM 78.8 °F 69.8 °F 74% 30.02 in 9.0 mi South 6.9 mph - N/A   Clear
2:00 PM 77 °F 70 °F 72% 30.01 in 10 mi South 8.1 mph - -  
2:00 PM 77.0 °F 69.8 °F 78% 30.01 in 9.0 mi South 8.1 mph - N/A   Clear
3:00 PM 78.8 °F 66.2 °F 65% 29.99 in 9.0 mi South 12.7 mph - N/A   Clear
4:00 PM 77.0 °F 66.2 °F 69% 29.97 in 9.0 mi SSW 8.1 mph - N/A   Clear
5:00 PM 77.0 °F 64.4 °F 65% 29.95 in 9.0 mi SSW 12.7 mph - N/A   Clear
6:00 PM 75.2 °F 64.4 °F 69% 29.95 in 9.0 mi SSW 10.4 mph - N/A   Clear
6:16 PM 73.4 °F 64.4 °F 73% 29.95 in 9.0 mi WSW 4.6 mph - N/A Thunderstorm Partly Cloudy
6:32 PM 73.4 °F 64.4 °F 73% 29.95 in 9.0 mi West 5.8 mph - N/A Thunderstorm Thunderstorm
6:38 PM 73.4 °F 64.4 °F 73% 29.96 in 9.0 mi WSW 20.7 mph 38.0 mph N/A Thunderstorm Thunderstorm
6:45 PM 75.2 °F 68.0 °F 78% 29.94 in 5.0 mi SW 29.9 mph 43.7 mph N/A Thunderstorm Unknown
6:47 PM 75.2 °F 66.2 °F 73% 29.95 in 5.0 mi SSW 31.1 mph 47.2 mph N/A Rain , Thunderstorm Light Thunderstorms and Rain
6:53 PM 77.0 °F 62.6 °F 61% 29.95 in 7.0 mi South 15.0 mph 47.2 mph N/A Rain , Thunderstorm Thunderstorms and Rain
7:00 PM 77.0 °F 60.8 °F 57% 29.95 in 9.0 mi South 10.4 mph 20.7 mph N/A Rain , Thunderstorm Light Thunderstorms and Rain
7:08 PM 77.0 °F 64.4 °F 65% 29.95 in 9.0 mi South 3.5 mph - N/A Rain , Thunderstorm Light Rain
7:09 PM 77.0 °F 64.4 °F 65% 29.95 in 9.0 mi Variable 2.3 mph - N/A Thunderstorm Mostly Cloudy
7:20 PM 78.8 °F 60.8 °F 54% 29.95 in 9.0 mi Variable 2.3 mph - N/A   Mostly Cloudy
8:00 PM 76 °F 64 °F 59% 29.95 in 10 mi SSW 5.8 mph - -   Clear
8:00 PM 77.0 °F 64.4 °F 65% 29.95 in 9.0 mi SSW 4.6 mph - N/A   Scattered Clouds
9:00 PM 73.4 °F 66.2 °F 78% 29.95 in 9.0 mi WSW 3.5 mph - N/A   Clear
10:00 PM 71.6 °F 66.2 °F 83% 29.97 in 9.0 mi SW 5.8 mph - N/A   Clear
11:00 PM 71.6 °F 64.4 °F 78% 29.97 in 9.0 mi WSW 4.6 mph - N/A   Scattered Clouds